• In United Kingdom
  • List of Countries
  • For 7 days
  • Water Temperature
  • Satellite Maps
  • Weather Map
  • Weather Widgets
  • user-avatar
    Login

    Hourly Weather Vanadzor

    Today, 18 August, Saturday

    Time Temperature Precipitation Wind Pressure Humidity
    00:00 +17°C° 0.4 mm 2 mps 634 mmHg 84%
    01:00 +17°C° 0.6 mm 2 mps 634 mmHg 86%
    02:00 +16°C° 0.6 mm 2 mps 633 mmHg 88%
    03:00 +16°C° 0 mm 2 mps 633 mmHg 91%
    04:00 +16°C° 0.7 mm 2 mps 633 mmHg 92%
    05:00 +16°C° 0.7 mm 2 mps 633 mmHg 92%
    06:00 +16°C° 0.7 mm 2 mps 633 mmHg 93%
    07:00 +17°C° 0.5 mm 2 mps 633 mmHg 87%
    08:00 +19°C° 0.5 mm 2 mps 634 mmHg 81%
    09:00 +20°C° 0.5 mm 2 mps 634 mmHg 74%
    10:00 +21°C° 0.2 mm 2 mps 634 mmHg 70%
    11:00 +23°C° 0.2 mm 2 mps 634 mmHg 66%
    12:00 +24°C° 0.2 mm 2 mps 634 mmHg 62%
    13:00 +25°C° 0.5 mm 2 mps 634 mmHg 60%
    14:00 +26°C° 0.5 mm 2 mps 634 mmHg 57%
    15:00 +26°C° 0.5 mm 2 mps 634 mmHg 55%
    16:00 +25°C° 1 mm 2 mps 633 mmHg 59%
    17:00 +24°C° 1 mm 3 mps 633 mmHg 63%
    18:00 +22°C° 1 mm 3 mps 633 mmHg 67%
    19:00 +21°C° 0.7 mm 2 mps 633 mmHg 73%
    20:00 +19°C° 0.7 mm 2 mps 633 mmHg 79%
    21:00 +18°C° 0.7 mm 2 mps 633 mmHg 85%
    22:00 +17°C° 1.3 mm 2 mps 633 mmHg 87%
    23:00 +17°C° 1.3 mm 2 mps 633 mmHg 89%

    Tomorrow, 19 August, Sunday

    Time Temperature Precipitation Wind Pressure Humidity
    00:00 +16°C° 1.3 mm 2 mps 633 mmHg 91%
    01:00 +16°C° 1 mm 2 mps 633 mmHg 92%
    02:00 +16°C° 1 mm 2 mps 633 mmHg 92%
    03:00 +16°C° 1 mm 2 mps 633 mmHg 93%
    04:00 +16°C° 0.5 mm 2 mps 633 mmHg 93%
    05:00 +15°C° 0.5 mm 2 mps 633 mmHg 92%
    06:00 +15°C° 0.5 mm 2 mps 633 mmHg 92%
    07:00 +16°C° 0.1 mm 2 mps 633 mmHg 86%
    08:00 +18°C° 0.1 mm 2 mps 634 mmHg 80%
    09:00 +19°C° 0.1 mm 2 mps 634 mmHg 74%
    10:00 +20°C° 0.2 mm 2 mps 634 mmHg 72%
    11:00 +20°C° 0.2 mm 2 mps 634 mmHg 69%
    12:00 +21°C° 0.2 mm 2 mps 634 mmHg 66%
    13:00 +22°C° 0.4 mm 3 mps 634 mmHg 64%
    14:00 +22°C° 0.4 mm 3 mps 634 mmHg 63%
    15:00 +24°C° 0.4 mm 3 mps 634 mmHg 61%
    16:00 +22°C° 0.9 mm 3 mps 634 mmHg 65%
    17:00 +21°C° 0.9 mm 3 mps 634 mmHg 69%
    18:00 +20°C° 0.9 mm 3 mps 633 mmHg 73%
    19:00 +18°C° 1.2 mm 3 mps 634 mmHg 78%
    20:00 +17°C° 1.2 mm 2 mps 634 mmHg 83%
    21:00 +16°C° 1.2 mm 2 mps 634 mmHg 88%
    22:00 +16°C° 0.7 mm 2 mps 634 mmHg 89%
    23:00 +16°C° 0.7 mm 2 mps 634 mmHg 90%

    Day after tomorrow, 20 August, Monday

    Time Temperature Precipitation Wind Pressure Humidity
    00:00 +16°C° 0.7 mm 2 mps 635 mmHg 91%
    01:00 +16°C° 0.7 mm 2 mps 635 mmHg 92%
    02:00 +15°C° 0.7 mm 2 mps 635 mmHg 92%
    03:00 +15°C° 0.7 mm 2 mps 635 mmHg 93%
    04:00 +15°C° 0.2 mm 2 mps 635 mmHg 93%
    05:00 +15°C° 0.2 mm 2 mps 635 mmHg 92%
    06:00 +15°C° 0.2 mm 2 mps 635 mmHg 92%
    07:00 +15°C° 0.2 mm 2 mps 635 mmHg 88%
    08:00 +16°C° 0.2 mm 2 mps 636 mmHg 85%
    09:00 +17°C° 0.2 mm 2 mps 636 mmHg 81%
    10:00 +17°C° 0.1 mm 3 mps 636 mmHg 79%
    11:00 +18°C° 0.1 mm 3 mps 636 mmHg 76%
    12:00 +18°C° 0.1 mm 3 mps 636 mmHg 74%
    13:00 +19°C° 0.1 mm 3 mps 636 mmHg 73%
    14:00 +19°C° 0.1 mm 3 mps 636 mmHg 72%
    15:00 +19°C° 0.1 mm 3 mps 636 mmHg 71%
    16:00 +19°C° 0.1 mm 3 mps 636 mmHg 74%
    17:00 +18°C° 0.1 mm 3 mps 636 mmHg 76%
    18:00 +18°C° 0.1 mm 3 mps 636 mmHg 79%
    19:00 +17°C° 0.2 mm 3 mps 636 mmHg 81%
    20:00 +16°C° 0.2 mm 3 mps 636 mmHg 84%
    21:00 +15°C° 0.2 mm 2 mps 636 mmHg 87%
    22:00 +15°C° 0.1 mm 2 mps 636 mmHg 88%
    23:00 +14°C° 0.1 mm 2 mps 636 mmHg 90%

    21 August, Tuesday

    Time Temperature Precipitation Wind Pressure Humidity
    00:00 +13°C° 0.1 mm 2 mps 636 mmHg 92%
    01:00 +13°C° 0 mm 2 mps 636 mmHg 92%
    02:00 +13°C° 0 mm 2 mps 636 mmHg 92%
    03:00 +13°C° 0 mm 2 mps 636 mmHg 92%
    04:00 +13°C° 0 mm 2 mps 636 mmHg 92%
    05:00 +13°C° 0 mm 2 mps 636 mmHg 92%
    06:00 +13°C° 0 mm 2 mps 636 mmHg 92%
    07:00 +15°C° 0 mm 2 mps 637 mmHg 86%
    08:00 +16°C° 0 mm 2 mps 637 mmHg 79%
    09:00 +18°C° 0 mm 2 mps 637 mmHg 73%
    10:00 +19°C° 0 mm 2 mps 637 mmHg 68%
    11:00 +21°C° 0 mm 2 mps 637 mmHg 63%
    12:00 +23°C° 0 mm 2 mps 638 mmHg 58%
    13:00 +24°C° 0 mm 2 mps 637 mmHg 56%
    14:00 +24°C° 0 mm 2 mps 637 mmHg 55%
    15:00 +25°C° 0 mm 2 mps 637 mmHg 53%
    16:00 +24°C° 0.2 mm 2 mps 637 mmHg 59%
    17:00 +23°C° 0.2 mm 2 mps 637 mmHg 65%
    18:00 +20°C° 0.2 mm 2 mps 637 mmHg 71%
    19:00 +19°C° 0.1 mm 2 mps 637 mmHg 77%
    20:00 +17°C° 0.1 mm 2 mps 637 mmHg 82%
    21:00 +16°C° 0.1 mm 2 mps 637 mmHg 88%
    22:00 +15°C° 0 mm 2 mps 637 mmHg 87%
    23:00 +15°C° 0 mm 2 mps 637 mmHg 87%

    22 August, Wednesday

    Time Temperature Precipitation Wind Pressure Humidity
    00:00 +15°C° 0 mm 2 mps 637 mmHg 87%
    01:00 +14°C° 0 mm 2 mps 637 mmHg 88%
    02:00 +14°C° 0 mm 2 mps 636 mmHg 88%
    03:00 +14°C° 0 mm 2 mps 636 mmHg 89%
    04:00 +14°C° 0 mm 2 mps 636 mmHg 89%
    05:00 +14°C° 0 mm 2 mps 637 mmHg 89%
    06:00 +14°C° 0 mm 2 mps 637 mmHg 90%
    07:00 +16°C° 0 mm 2 mps 637 mmHg 82%
    08:00 +18°C° 0 mm 2 mps 638 mmHg 74%
    09:00 +20°C° 0 mm 2 mps 638 mmHg 66%
    10:00 +23°C° 0 mm 2 mps 638 mmHg 62%
    11:00 +24°C° 0 mm 2 mps 638 mmHg 58%
    12:00 +25°C° 0 mm 2 mps 638 mmHg 53%
    13:00 +25°C° 0.1 mm 2 mps 638 mmHg 53%
    14:00 +26°C° 0.1 mm 3 mps 638 mmHg 52%
    15:00 +26°C° 0.1 mm 3 mps 638 mmHg 52%
    16:00 +25°C° 0.1 mm 3 mps 638 mmHg 56%
    17:00 +24°C° 0.1 mm 3 mps 638 mmHg 60%
    18:00 +21°C° 0.1 mm 3 mps 637 mmHg 64%
    19:00 +20°C° 0 mm 2 mps 637 mmHg 68%
    20:00 +18°C° 0 mm 2 mps 637 mmHg 72%
    21:00 +16°C° 0 mm 2 mps 637 mmHg 76%
    22:00 +16°C° 0 mm 2 mps 637 mmHg 76%
    23:00 +15°C° 0 mm 2 mps 637 mmHg 76%

    23 August, Thursday

    Time Temperature Precipitation Wind Pressure Humidity
    00:00 +15°C° 0 mm 2 mps 637 mmHg 76%
    01:00 +14°C° 0 mm 2 mps 637 mmHg 78%
    02:00 +14°C° 0 mm 2 mps 637 mmHg 80%
    03:00 +13°C° 0 mm 2 mps 637 mmHg 82%
    04:00 +13°C° 0 mm 2 mps 637 mmHg 82%
    05:00 +13°C° 0 mm 2 mps 637 mmHg 82%
    06:00 +13°C° 0 mm 2 mps 637 mmHg 83%
    07:00 +15°C° 0 mm 2 mps 638 mmHg 76%
    08:00 +18°C° 0 mm 2 mps 638 mmHg 68%
    09:00 +20°C° 0 mm 2 mps 639 mmHg 61%
    10:00 +21°C° 0 mm 2 mps 638 mmHg 58%
    11:00 +22°C° 0 mm 3 mps 638 mmHg 55%
    12:00 +25°C° 0 mm 3 mps 638 mmHg 52%
    13:00 +25°C° 0 mm 3 mps 638 mmHg 52%
    14:00 +25°C° 0 mm 3 mps 638 mmHg 52%
    15:00 +26°C° 0 mm 3 mps 638 mmHg 52%
    16:00 +24°C° 0 mm 3 mps 637 mmHg 57%
    17:00 +22°C° 0 mm 3 mps 637 mmHg 61%
    18:00 +21°C° 0 mm 3 mps 637 mmHg 66%
    19:00 +19°C° 0.1 mm 2 mps 637 mmHg 70%
    20:00 +18°C° 0.1 mm 2 mps 637 mmHg 74%
    21:00 +16°C° 0.1 mm 2 mps 637 mmHg 78%
    22:00 +15°C° 0 mm 2 mps 637 mmHg 78%
    23:00 +15°C° 0 mm 2 mps 637 mmHg 78%
    Show more